Olympia, WA

8:35 PM PDT on September 24, 2017 (GMT -0700)
Olympia

Weather History for KOLM - June, 2014

Change the Weather History Date:

Tuesday, June 3, 2014

  Actual Average Record
Temperature  
Mean Temperature 57 °F 57 °F  
Max Temperature 68 °F 68 °F 89 °F (1978)
Min Temperature 46 °F 46 °F 30 °F (1976)
Degree Days  
Heating Degree Days 8 8  
Month to date heating degree days 17 24  
Since 1 June heating degree days 17 24  
Since 1 July heating degree days 5107 5220  
Cooling Degree Days 0 0  
Month to date cooling degree days 0 0  
Year to date cooling degree days 1 3  
Since 1 June cooling degree days 0 0  
Growing Degree Days 10 (Base 50)    
Moisture  
Dew Point 47 °F    
Average Humidity 69    
Maximum Humidity 86    
Minimum Humidity 52    
Precipitation  
Precipitation 0.00 in 0.07 in 0.89 in (1990)
Month to date precipitation 0.00 0.22  
Year to date precipitation 29.81 24.49  
Sea Level Pressure  
Sea Level Pressure 30.03 in    
Wind  
Wind Speed 7 mph (SSW)    
Max Wind Speed 14 mph    
Max Gust Speed 22 mph    
Visibility 8 miles    
Events      
T = Trace of Precipitation, MM = Missing Value Source: NWS Daily Summary

Daily Weather History Graph

Daily Weather History Graph

Search for Another Location

Airport or City:

Trip Planner

Search our weather history database for the weather conditions in past years. The results will help you decide how hot, cold, wet, or windy it might be!

Date:

Astronomy

Jun. 03, 2014 Rise Set
Actual Time 5:19 AM PDT 9:00 PM PDT
Civil Twilight 4:40 AM PDT 9:39 PM PDT
Nautical Twilight 3:48 AM PDT 10:31 PM PDT
Astronomical Twilight 2:36 AM PDT 11:44 PM PDT
Moon 11:02 AM PDT (6/3) 12:18 AM PDT (6/3)
Length of Visible Light 16h 58m
Length of Day
15h 41m
Waxing Crescent, 31% of the Moon is Illuminated
Jun 3
Waxing Crescent
Jun 5
First Quarter
Jun 12
Full
Jun 19
Last Quarter
Jun 27
New

Hourly Weather History & Observations

Time (PDT) Temp. Dew Point Humidity Pressure Visibility Wind Dir Wind Speed Gust Speed Precip Events Conditions
12:54 AM 48.9 °F 45.0 °F 86% 29.94 in 7.0 mi SSW 9.2 mph - N/A   Clear
1:54 AM 50.0 °F 46.0 °F 86% 29.94 in 7.0 mi SSW 8.1 mph - N/A   Clear
2:54 AM 52.0 °F 46.9 °F 83% 29.95 in 7.0 mi SSW 6.9 mph - N/A   Mostly Cloudy
3:54 AM 53.1 °F 46.9 °F 80% 29.96 in 7.0 mi SSW 9.2 mph - N/A   Overcast
4:54 AM 52.0 °F 46.9 °F 83% 29.97 in 7.0 mi South 5.8 mph - N/A   Overcast
5:54 AM 52.0 °F 46.9 °F 83% 29.99 in 6.0 mi SSW 8.1 mph - N/A   Haze
6:54 AM 52.0 °F 46.9 °F 83% 30.01 in 6.0 mi SW 6.9 mph - N/A   Haze
7:54 AM 54.0 °F 46.9 °F 77% 30.01 in 10.0 mi SSW 6.9 mph - N/A   Overcast
8:54 AM 55.0 °F 46.9 °F 74% 30.03 in 7.0 mi SSW 9.2 mph - N/A   Overcast
9:54 AM 57.0 °F 46.9 °F 69% 30.03 in 10.0 mi SSW 10.4 mph - N/A   Overcast
10:54 AM 57.9 °F 46.9 °F 67% 30.05 in 10.0 mi SSW 6.9 mph - N/A   Overcast
11:54 AM 59.0 °F 48.0 °F 67% 30.05 in 10.0 mi SW 8.1 mph - N/A   Overcast
12:54 PM 61.0 °F 48.0 °F 62% 30.05 in 10.0 mi SW 8.1 mph - N/A   Overcast
1:54 PM 62.1 °F 48.9 °F 62% 30.06 in 10.0 mi South 8.1 mph - N/A   Overcast
2:54 PM 64.0 °F 48.0 °F 56% 30.06 in 10.0 mi SW 9.2 mph 17.3 mph N/A   Overcast
3:54 PM 64.9 °F 50.0 °F 58% 30.05 in 10.0 mi Variable 4.6 mph - N/A   Overcast
4:54 PM 66.9 °F 48.9 °F 52% 30.06 in 10.0 mi Variable 4.6 mph - N/A   Mostly Cloudy
5:54 PM 66.9 °F 48.0 °F 51% 30.05 in 10.0 mi SW 9.2 mph - N/A   Scattered Clouds
6:54 PM 66.0 °F 48.9 °F 54% 30.05 in 7.0 mi SW 10.4 mph - N/A   Clear
7:54 PM 62.6 °F 48.2 °F 59% 30.06 in 7.0 mi West 8.1 mph - N/A   Clear
8:54 PM 57.9 °F 46.9 °F 67% 30.08 in 6.0 mi WSW 5.8 mph - N/A   Haze
9:54 PM 53.6 °F 46.4 °F 77% 30.10 in 7.0 mi SSW 4.6 mph - N/A   Clear
10:54 PM 51.1 °F 46.0 °F 83% 30.11 in 7.0 mi SSW 6.9 mph - N/A   Partly Cloudy
11:54 PM 50.0 °F 45.0 °F 83% 30.12 in 7.0 mi South 3.5 mph - N/A   Clear